Weather reports worldwide

Advertisment
Baltasound, United Kingdom (3002): temperature & dewpoint: 06.11.2019 05:00:00 - 12.11.2019 05:00:00 (GMT)Baltasound, United Kingdom (3002): temperature -20cm: 06.11.2019 05:00:00 - 12.11.2019 05:00:00 (GMT)Baltasound, United Kingdom (3002): wind speed & gusts: 06.11.2019 05:00:00 - 12.11.2019 05:00:00 (GMT)Baltasound, United Kingdom (3002): wind direction: 06.11.2019 05:00:00 - 12.11.2019 05:00:00 (GMT)Baltasound, United Kingdom (3002): reduced air pressure: 06.11.2019 05:00:00 - 12.11.2019 05:00:00 (GMT)Baltasound, United Kingdom (3002): visibility: 06.11.2019 05:00:00 - 12.11.2019 05:00:00 (GMT)Baltasound, United Kingdom (3002): precipitation: 06.11.2019 05:00:00 - 12.11.2019 05:00:00 (GMT)
Date & Time tt [°C] td [°C] tt -20cm [°C] ff [km/h] ff [kn] fx [km/h] fx [kn] dd ppp [hPa] vv [km] rr [mm]
12.11.2019 05:00:00 4,1 -1,8 - 39 21 48 26 ENE 998,4 30 0,0
12.11.2019 04:00:00 4,4 -0,4 - 37 20 50 27 ENE 998,2 45 0,0
12.11.2019 03:00:00 4,3 -0,9 - 35 19 50 27 ENE 998,4 50 0,0
12.11.2019 02:00:00 4,0 -1,3 - 34 18 50 27 ENE 998,8 50 0,0
12.11.2019 01:00:00 3,9 -1,2 - 37 20 54 29 ENE 998,8 40 0,0
12.11.2019 00:00:00 4,2 -1,6 - 37 20 52 28 ENE 999,1 45 0,0
11.11.2019 23:00:00 3,9 -1,7 - 37 20 50 27 E 998,9 45 0,0
11.11.2019 22:00:00 4,0 0,4 - 39 21 50 27 ENE 999,0 45 0,2
11.11.2019 21:00:00 3,6 1,5 - 35 19 50 27 E 999,0 3,8 0,2
11.11.2019 20:00:00 4,4 -0,6 - 31 17 48 26 E 998,8 45 0,0
11.11.2019 19:00:00 4,0 0,2 - 29 16 46 25 ENE 998,9 40 0,0
11.11.2019 18:00:00 4,5 -1,1 - 31 17 48 26 E 998,9 50 0,0
11.11.2019 17:00:00 4,6 -1,4 - 34 18 - - E 998,9 50 0,0
11.11.2019 16:00:00 4,2 -0,9 - 31 17 - - ENE 999,2 35 0,0
11.11.2019 15:00:00 3,8 -1,5 - 28 15 - - E 999,5 50 0,0
11.11.2019 14:00:00 3,7 -1,9 - 28 15 - - E 999,8 40 0,0
11.11.2019 13:00:00 3,7 -2,5 - 28 15 - - E 1000,2 50 0,0
11.11.2019 12:00:00 3,5 -3,4 - 26 14 - - E 1000,6 35 0,0
11.11.2019 11:00:00 3,9 -1,7 - 29 16 - - E 1001,0 50 0,0
11.11.2019 10:00:00 3,3 -0,4 - 31 17 - - E 1001,3 50 0,0
11.11.2019 09:00:00 3,8 -1,4 4,7 28 15 - - E 1001,4 50 0,0
11.11.2019 08:00:00 3,6 -2,2 - 22 12 - - E 1001,8 50 0,0
11.11.2019 07:00:00 3,1 -2,3 - 24 13 - - E 1002,2 50 0,0
11.11.2019 06:00:00 3,1 -2,3 - 21 11 - - E 1002,7 40 0,0
11.11.2019 05:00:00 3,1 -2,0 - 24 13 - - E 1003,1 50 0,0
11.11.2019 04:00:00 2,7 -2,7 - 21 11 - - ESE 1003,8 50 0,0
11.11.2019 03:00:00 2,8 -1,1 - 24 13 - - E 1004,2 50 0,0
11.11.2019 02:00:00 3,4 -1,8 - 18 10 - - ESE 1005,5 35 0,0
11.11.2019 01:00:00 1,6 0,3 - 15 8 - - S 1006,6 45 0,0
11.11.2019 00:00:00 2,4 0,2 - 22 12 52 28 SE 1007,7 50 0,0
10.11.2019 23:00:00 2,1 0,0 - 21 11 - - E 1008,7 26 0,2
10.11.2019 22:00:00 0,7 -0,1 - 5 3 - - SW 1009,5 50 0,4
10.11.2019 21:00:00 1,8 0,3 - 21 11 - - ENE 1010,6 11 0,0
10.11.2019 20:00:00 2,1 0,0 - 24 13 - - SE 1011,1 50 0,2
10.11.2019 19:00:00 0,4 -2,1 - 2 1 - - SW 1012,0 45 0,0
10.11.2019 18:00:00 1,8 -0,6 - 4 2 - - SW 1012,7 50 0,0
10.11.2019 17:00:00 1,9 -0,6 - 5 3 - - SSW 1013,5 50 0,0
10.11.2019 16:00:00 2,0 0,4 - 13 7 - - SW 1014,6 29 0,0
10.11.2019 15:00:00 3,2 0,5 - 8 4 - - W 1015,5 45 0,0
10.11.2019 14:00:00 4,4 0,7 - 15 8 - - E 1016,1 50 0,0
10.11.2019 13:00:00 4,2 0,8 - 16 9 - - ENE 1016,8 45 0,0
10.11.2019 12:00:00 4,6 0,3 - 5 3 - - SSE 1017,5 40 0,0
10.11.2019 11:00:00 3,7 -0,4 - 28 15 - - ENE 1018,2 35 0,0
10.11.2019 10:00:00 3,9 -1,8 - 2 1 - - NNE 1018,6 35 0,0
10.11.2019 09:00:00 3,9 -2,3 5,0 15 8 - - NE 1018,7 40 0,0
10.11.2019 08:00:00 4,1 -0,2 - 15 8 - - NE 1018,8 40 0,0
10.11.2019 07:00:00 2,8 -3,1 - 16 9 - - NNE 1018,5 50 0,0
10.11.2019 06:00:00 2,3 -2,5 - 11 6 - - N 1018,4 40 0,0
10.11.2019 05:00:00 4,2 -1,8 - 16 9 - - NNE 1018,2 29 0,0
10.11.2019 04:00:00 4,3 -2,2 - 21 11 - - NE 1017,9 45 0,0
10.11.2019 03:00:00 3,8 -1,7 - 16 9 - - NNE 1018,0 40 0,0
10.11.2019 02:00:00 3,5 -2,1 - 16 9 - - NNE 1017,7 50 0,0
10.11.2019 01:00:00 4,6 -1,7 - 18 10 - - NE 1017,5 35 0,0
10.11.2019 00:00:00 4,8 -1,8 - 24 13 - - NE 1017,2 35 0,0
09.11.2019 23:00:00 4,7 -1,5 - 26 14 - - NE 1016,6 35 0,0
09.11.2019 22:00:00 4,8 -1,9 - 26 14 - - NE 1016,2 45 0,0
09.11.2019 21:00:00 4,9 -0,8 - 24 13 - - NE 1015,6 40 0,0
09.11.2019 20:00:00 4,9 -2,2 - 28 15 - - NE 1015,1 35 0,0
09.11.2019 19:00:00 4,9 -2,2 - 28 15 - - NE 1014,7 45 0,0
09.11.2019 18:00:00 5,1 -2,1 - 31 17 - - ENE 1014,3 30 0,0
09.11.2019 17:00:00 5,0 -2,1 - 29 16 - - NE 1013,7 40 0,0
09.11.2019 16:00:00 4,7 -2,0 - 28 15 46 25 ENE 1013,1 50 0,0
09.11.2019 15:00:00 4,9 -0,6 - 26 14 46 25 ENE 1012,7 50 0,2
09.11.2019 14:00:00 5,6 1,0 - 24 13 - - NE 1012,5 50 0,0
09.11.2019 13:00:00 5,5 -0,7 - 22 12 - - NE 1012,5 40 0,0
09.11.2019 12:00:00 5,3 1,1 - 24 13 - - ENE 1012,7 29 0,0
09.11.2019 11:00:00 5,1 -0,1 - 21 11 - - ENE 1012,6 35 0,0
09.11.2019 10:00:00 2,6 -0,8 - 8 4 - - NNE 1012,8 50 0,0
09.11.2019 09:00:00 3,1 0,5 5,2 13 7 - - ENE 1012,8 28 0,6
09.11.2019 08:00:00 2,0 -1,2 - 2 1 - - NNW 1012,6 35 0,0
09.11.2019 07:00:00 3,4 -1,0 - 15 8 - - E 1012,3 50 0,0
09.11.2019 06:00:00 2,5 0,5 - 8 4 - - W 1012,4 50 0,0
09.11.2019 05:00:00 1,5 -2,0 - 11 6 - - E 1012,6 50 0,0
09.11.2019 04:00:00 3,1 -0,5 - 16 9 - - E 1013,0 40 0,0
09.11.2019 03:00:00 1,9 -1,6 - 13 7 - - E 1013,0 50 0,0
09.11.2019 02:00:00 2,4 -0,2 - 13 7 - - E 1013,8 45 0,0
09.11.2019 01:00:00 2,8 -0,7 - 13 7 - - E 1014,1 50 0,0
09.11.2019 00:00:00 1,9 -1,7 - 13 7 - - E 1014,2 45 0,0
08.11.2019 23:00:00 3,6 0,6 - 13 7 - - ENE 1014,4 50 0,0
08.11.2019 22:00:00 1,8 -0,5 - 4 2 - - W 1014,6 40 0,0
08.11.2019 21:00:00 3,4 0,4 - 21 11 - - NE 1014,8 45 0,0
08.11.2019 20:00:00 3,4 -1,4 - 15 8 - - ENE 1015,1 50 0,0
08.11.2019 19:00:00 2,4 -0,5 - 9 5 - - ESE 1015,2 50 0,0
08.11.2019 18:00:00 2,0 -0,3 - 5 3 - - WNW 1015,3 35 0,0
08.11.2019 17:00:00 2,8 -0,1 - 5 3 - - SE 1015,2 40 0,0
08.11.2019 16:00:00 3,7 0,2 - 13 7 - - NNE 1015,1 50 0,0
08.11.2019 15:00:00 4,7 -0,6 - 16 9 - - NE 1014,9 40 0,0
08.11.2019 14:00:00 4,8 0,0 - 16 9 - - NE 1014,8 45 0,0
08.11.2019 13:00:00 4,7 0,9 - 18 10 - - NE 1015,1 50 0,0
08.11.2019 12:00:00 5,1 0,6 - 15 8 - - NE 1015,2 30 0,0
08.11.2019 11:00:00 4,3 -0,5 - 16 9 - - NE 1015,3 45 0,0
08.11.2019 10:00:00 3,8 1,1 - 11 6 - - ENE 1015,3 45 0,6
08.11.2019 09:00:00 3,1 1,0 5,7 13 7 - - NNE 1014,9 45 0,4
08.11.2019 08:00:00 2,0 -0,7 - 11 6 - - N 1014,5 50 0,0
08.11.2019 07:00:00 3,6 0,7 - 18 10 - - NE 1014,3 45 0,0
08.11.2019 06:00:00 2,5 0,7 - 13 7 - - N 1014,0 50 0,0
08.11.2019 05:00:00 1,5 -0,1 - 9 5 - - N 1013,6 45 0,0
08.11.2019 04:00:00 2,6 -0,1 - 26 14 - - NNE 1013,6 45 0,4
08.11.2019 03:00:00 2,4 0,4 - 21 11 - - ENE 1013,3 30 0,0
08.11.2019 02:00:00 2,2 -0,4 - 21 11 - - N 1013,3 50 0,0
08.11.2019 01:00:00 2,1 0,3 - 18 10 - - N 1013,1 50 0,0
08.11.2019 00:00:00 2,3 -0,3 - 15 8 - - N 1012,8 45 0,2
07.11.2019 23:00:00 2,9 0,4 - 15 8 - - NE 1012,5 50 0,6
07.11.2019 22:00:00 1,7 -0,1 - 4 2 - - ESE 1012,3 4,2 0,8
07.11.2019 21:00:00 2,5 1,1 - 34 18 - - E 1012,3 14 0,0
07.11.2019 20:00:00 2,1 0,4 - 34 18 50 27 E 1011,7 21 0,8
07.11.2019 19:00:00 2,4 1,4 - 29 16 - - NE 1011,4 6 1,8
07.11.2019 18:00:00 2,7 1,0 - 26 14 - - NNW 1010,7 11 0,0
07.11.2019 17:00:00 3,2 0,2 - 21 11 46 25 NNE 1010,2 40 1,4
07.11.2019 16:00:00 2,9 -1,7 - 18 10 - - N 1009,8 50 0,0
07.11.2019 15:00:00 3,7 0,7 - 31 17 - - NE 1009,6 30 0,0
07.11.2019 14:00:00 4,1 -1,4 - 22 12 - - NNE 1009,4 45 0,0
07.11.2019 13:00:00 3,4 1,5 - 24 13 48 26 NNE 1009,3 40 0,2
07.11.2019 12:00:00 4,8 0,9 - 24 13 - - NNE 1008,6 30 0,0
07.11.2019 11:00:00 4,6 1,2 - 28 15 - - NE 1008,6 24 0,4
07.11.2019 10:00:00 4,5 0,6 - 28 15 - - NE 1008,0 40 0,0
07.11.2019 09:00:00 4,6 0,1 6,0 26 14 - - NNE 1007,6 45 0,0
07.11.2019 08:00:00 4,6 1,1 - 28 15 - - NNE 1007,0 8 0,0
07.11.2019 07:00:00 4,7 -0,2 - 26 14 - - NNE 1006,4 35 0,0
07.11.2019 06:00:00 4,9 -0,1 - 28 15 - - NE 1005,9 40 0,0
07.11.2019 05:00:00 4,6 0,5 - 28 15 59 32 NE 1005,5 40 0,0
07.11.2019 04:00:00 4,9 0,3 - 28 15 48 26 NE 1005,1 45 0,2
07.11.2019 03:00:00 4,8 0,7 - 29 16 - - NE 1004,7 40 0,0
07.11.2019 02:00:00 4,9 0,9 - 21 11 48 26 NE 1004,3 35 0,0
07.11.2019 01:00:00 4,7 0,5 - 22 12 - - E 1004,0 40 0,0
07.11.2019 00:00:00 3,6 0,5 - 18 10 46 25 NE 1003,8 45 0,4
06.11.2019 23:00:00 1,2 0,6 - 4 2 - - W 1003,7 40 0,0
06.11.2019 22:00:00 0,1 -0,5 - 5 3 - - WSW 1003,7 50 0,0
06.11.2019 21:00:00 1,3 0,7 - 4 2 - - S 1003,9 8 0,8
06.11.2019 20:00:00 1,6 1,0 - 9 5 - - N 1003,5 35 0,0
06.11.2019 19:00:00 -1,6 -2,9 - 2 1 - - WSW 1003,3 50 0,0
06.11.2019 18:00:00 0,6 -1,2 - 8 4 - - ESE 1003,0 50 0,0
06.11.2019 17:00:00 2,6 1,0 - 11 6 - - N 1003,0 50 0,0
06.11.2019 16:00:00 2,6 0,4 - 4 2 - - ENE 1003,0 10 0,0
06.11.2019 15:00:00 1,9 -0,3 - 9 5 - - WNW 1003,0 45 0,0
06.11.2019 14:00:00 4,7 0,7 - 9 5 - - NW 1003,1 30 0,0
06.11.2019 13:00:00 4,7 -0,8 - 9 5 - - NNW 1003,2 35 0,0
06.11.2019 12:00:00 4,8 -0,8 - 4 2 - - NW 1003,5 50 0,0
06.11.2019 11:00:00 4,7 -0,3 - 4 2 - - NNE 1003,7 30 0,0
06.11.2019 10:00:00 3,7 0,2 - 5 3 - - W 1004,2 45 0,0
06.11.2019 09:00:00 1,8 -0,2 6,7 8 4 - - W 1004,6 50 0,0
06.11.2019 08:00:00 0,2 -1,4 - 9 5 - - WNW 1004,6 50 0,0
06.11.2019 07:00:00 0,1 -1,9 - 2 1 - - SW 1004,6 50 0,0
06.11.2019 06:00:00 0,1 -1,4 - 5 3 - - WSW 1004,9 50 0,0
06.11.2019 05:00:00 1,9 0,4 - 16 9 - - NNW 1005,5 35 0,2

tt = temperature
td = dewpoint
tt -20cm = temperature -20cm
ff = wind speed
fx = gusts
dd = wind direction
ppp = reduced air pressure
vv = visibility
rr = precipitation

Next stations